FW9574 Weather Reports


time (UTC)temp
F
wind
direction
speed
knots
gust
knots
rain 1hr
in
rain 24hr
in
rain mn
in
humidity
%
barometer
mb
20260502170143 63 253 15.6 16.5 0.00 0.00 0.00 38 1012.4
20260502164130 62 266 5.2 9.6 0.00 0.00 0.00 39 1012.4
20260502163626 62 224 7.8 12.2 0.00 0.00 0.00 41 1012.6
20260502163123 62 234 7.0 13.0 0.00 0.00 0.00 40 1012.7
20260502162619 60 228 7.8 17.4 0.00 0.00 0.00 43 1012.8
20260502162117 59 230 5.2 11.3 0.00 0.00 0.00 46 1012.9
20260502161614 60 231 4.3 12.2 0.00 0.00 0.00 46 1013.1
20260502161111 59 250 9.6 10.4 0.00 0.00 0.00 45 1013.1
20260502160609 59 222 5.2 13.9 0.00 0.00 0.00 43 1013.3
20260502160107 59 282 5.2 9.6 0.00 0.00 0.00 45 1013.2
20260502152022 56 230 5.2 13.9 0.00 0.00 0.00 47 1013.9
20260502151518 57 256 10.4 11.3 0.00 0.00 0.00 46 1013.9
20260502151016 55 254 6.1 14.8 0.00 0.00 0.00 50 1013.8
20260502150513 56 203 4.3 11.3 0.00 0.00 0.00 51 1014.1
20260502130358 42 173 7.8 10.4 0.00 0.00 0.00 67 1015.3
20260502123341 40 161 5.2 7.8 0.00 0.00 0.00 70 1015.6
20260502122838 39 148 3.5 6.1 0.00 0.00 0.00 73 1015.7
20260502122333 39 144 5.2 7.0 0.00 0.00 0.00 72 1016.0
20260502121832 39 148 3.5 7.0 0.00 0.00 0.00 72 1015.8
20260502121329 39 150 7.0 7.0 0.00 0.00 0.00 71 1015.4
20260502120826 38 161 4.3 7.8 0.00 0.00 0.00 72 1015.6
20260502120322 38 161 5.2 7.8 0.00 0.00 0.00 72 1015.6
20260502115820 38 145 5.2 7.8 0.00 0.00 0.00 72 1015.7
20260502115317 37 159 6.1 8.7 0.00 0.00 0.00 72 1015.7
20260502114813 37 155 6.1 7.8 0.00 0.00 0.00 72 1015.7
20260502114310 37 159 4.3 7.8 0.00 0.00 0.00 73 1015.7
20260502113807 37 152 5.2 7.0 0.00 0.00 0.00 73 1015.8
20260502113305 36 160 5.2 6.1 0.00 0.00 0.00 74 1015.8
20260502112803 36 165 5.2 6.1 0.00 0.00 0.00 73 1015.8
20260502112300 36 169 3.5 5.2 0.00 0.00 0.00 74 1015.8
20260502111757 36 162 5.2 6.1 0.00 0.00 0.00 73 1015.9
20260502111255 36 157 5.2 6.1 0.00 0.00 0.00 73 1015.8
20260502110752 36 151 5.2 7.0 0.00 0.00 0.00 73 1015.9
20260502110250 36 159 4.3 5.2 0.00 0.00 0.00 73 1016.0
20260502105748 36 160 3.5 4.3 0.00 0.00 0.00 73 1016.0
20260502105243 35 159 2.6 4.3 0.00 0.00 0.00 74 1016.2
20260502104742 35 158 3.5 4.3 0.00 0.00 0.00 74 1016.1
20260502104239 35 166 3.5 3.5 0.00 0.00 0.00 75 1016.2
20260502103736 35 152 3.5 3.5 0.00 0.00 0.00 75 1016.1
20260502103234 35 147 3.5 4.3 0.00 0.00 0.00 74 1016.3
20260502102730 36 157 2.6 3.5 0.00 0.00 0.00 73 1016.3
20260502102227 36 122 0.9 4.3 0.00 0.00 0.00 73 1016.6
20260502101725 36 149 3.5 4.3 0.00 0.00 0.00 73 1016.4
20260502101223 36 159 3.5 4.3 0.00 0.00 0.00 73 1016.6
20260502100721 36 150 4.3 4.3 0.00 0.00 0.00 73 1016.6
20260502100219 36 147 2.6 4.3 0.00 0.00 0.00 72 1016.6
20260502091153 35 150 1.7 2.6 0.00 0.00 0.00 79 1016.8
20260502090651 35 132 1.7 3.5 0.00 0.00 0.00 81 1016.8
20260502090148 35 119 2.6 3.5 0.00 0.00 0.00 81 1016.8
20260502071049 34 99 1.7 2.6 0.00 0.00 0.00 85 1017.3
20260502070547 35 106 2.6 3.5 0.00 0.00 0.00 85 1017.5
20260502070045 34 121 1.7 2.6 0.00 0.00 0.00 85 1017.5
20260502065543 34 113 0.9 2.6 0.00 0.00 0.00 84 1017.5
20260502065040 34 128 1.7 2.6 0.00 0.00 0.00 83 1017.5
20260502064539 34 123 1.7 2.6 0.00 0.00 0.00 83 1017.5
20260502064035 35 112 2.6 2.6 0.00 0.00 0.00 82 1017.6
20260502063533 35 109 3.5 3.5 0.00 0.00 0.00 81 1017.7
20260502063031 35 132 1.7 2.6 0.00 0.00 0.00 81 1017.7
20260502062527 35 122 2.6 2.6 0.00 0.00 0.00 80 1017.7
20260502062026 35 113 1.7 1.7 0.00 0.00 0.00 80 1017.8
20260502061524 35 119 1.7 2.6 0.00 0.00 0.00 80 1017.7
20260502061020 35 115 2.6 2.6 0.00 0.00 0.00 80 1017.5
20260502060515 36 106 2.6 2.6 0.00 0.00 0.00 79 1017.6
20260502060013 36 116 2.6 2.6 0.00 0.00 0.00 79 1017.7
20260502055510 36 105 2.6 3.5 0.00 0.00 0.00 77 1017.8
20260502055009 36 94 1.7 2.6 0.00 0.00 0.00 74 1017.6
20260502054507 36 109 2.6 2.6 0.00 0.00 0.00 72 1017.7
20260502054004 37 110 1.7 2.6 0.00 0.00 0.00 73 1017.7
20260502053500 37 110 2.6 3.5 0.00 0.00 0.00 72 1017.6
20260502052959 36 97 1.7 1.7 0.00 0.00 0.00 71 1017.7
20260502052456 37 119 1.7 2.6 0.00 0.00 0.00 70 1017.8
20260502051955 36 110 0.9 2.6 0.00 0.00 0.00 71 1017.8
20260502051452 37 145 0.9 1.7 0.00 0.00 0.00 71 1017.9
20260502050949 37 111 2.6 2.6 0.00 0.00 0.00 68 1017.8
20260502050446 37 119 0.9 1.7 0.00 0.00 0.00 67 1017.9
20260502045943 37 135 1.7 2.6 0.00 0.00 0.00 69 1017.8
20260502045439 37 117 1.7 1.7 0.00 0.00 0.00 67 1017.8
20260502044937 37 108 3.5 3.5 0.00 0.00 0.00 68 1017.8
20260502044432 37 107 2.6 3.5 0.00 0.00 0.00 67 1017.8
20260502043929 36 116 1.7 1.7 0.00 0.00 0.00 68 1017.9
20260502043427 37 147 0.0 0.9 0.00 0.00 0.00 69 1018.0
20260502042926 37 191 0.0 1.7 0.00 0.00 0.00 69 1018.0
20260502042424 38 166 1.7 1.7 0.00 0.00 0.00 68 1018.0
20260502041921 38 114 2.6 3.5 0.00 0.00 0.00 67 1018.1
20260502041419 38 113 3.5 3.5 0.00 0.00 0.00 67 1018.0
20260502040916 39 104 2.6 2.6 0.00 0.00 0.00 63 1018.0
20260502040412 39 95 2.6 3.5 0.00 0.00 0.00 61 1018.0
20260502035908 39 108 1.7 2.6 0.00 0.00 0.00 63 1018.1
20260502035405 40 110 2.6 3.5 0.00 0.00 0.00 62 1018.2
20260502034902 39 106 2.6 3.5 0.00 0.00 0.00 64 1018.2
20260502034401 39 131 1.7 1.7 0.00 0.00 0.00 62 1018.1
20260502033859 39 133 0.9 1.7 0.00 0.00 0.00 62 1018.1
20260502033356 40 110 1.7 2.6 0.00 0.00 0.00 60 1018.1
20260502032853 41 117 2.6 2.6 0.00 0.00 0.00 58 1018.1
20260502032349 42 113 2.6 3.5 0.00 0.00 0.00 52 1018.0
20260502031847 41 104 2.6 3.5 0.00 0.00 0.00 54 1018.0
20260502031345 42 118 2.6 2.6 0.00 0.00 0.00 53 1018.0
20260502030843 42 103 1.7 2.6 0.00 0.00 0.00 54 1018.1
20260502030341 42 108 1.7 2.6 0.00 0.00 0.00 56 1018.0
20260502025838 42 119 1.7 2.6 0.00 0.00 0.00 53 1018.1
20260502025335 43 117 1.7 2.6 0.00 0.00 0.00 53 1018.1
20260502024833 43 112 2.6 2.6 0.00 0.00 0.00 54 1018.1
20260502024331 44 118 1.7 2.6 0.00 0.00 0.00 54 1018.3
20260502023828 44 113 1.7 2.6 0.00 0.00 0.00 49 1018.2
20260502023326 44 114 1.7 2.6 0.00 0.00 0.00 52 1018.0
20260502022824 45 120 1.7 1.7 0.00 0.00 0.00 53 1018.0
20260502022320 45 122 2.6 2.6 0.00 0.00 0.00 48 1017.9
20260502021817 45 117 2.6 2.6 0.00 0.00 0.00 50 1017.9
20260502021314 45 125 1.7 2.6 0.00 0.00 0.00 52 1017.9
20260502020811 46 123 2.6 2.6 0.00 0.00 0.00 48 1017.9
20260502020309 46 147 2.6 2.6 0.00 0.00 0.00 46 1017.8
20260502015806 47 144 2.6 2.6 0.00 0.00 0.00 46 1017.8
20260502015305 47 146 2.6 3.5 0.00 0.00 0.00 44 1017.7
20260502014800 48 143 2.6 2.6 0.00 0.00 0.00 43 1017.8
20260502014257 48 143 1.7 2.6 0.00 0.00 0.00 43 1017.8
20260502013753 48 153 0.0 0.9 0.00 0.00 0.00 41 1017.9
20260502013248 49 175 0.0 0.9 0.00 0.00 0.00 40 1017.7
20260502012745 50 68 0.9 1.7 0.00 0.00 0.00 39 1017.7
20260502012243 51 110 0.9 0.9 0.00 0.00 0.00 39 1017.8
20260502011740 52 119 0.0 0.9 0.00 0.00 0.00 38 1017.9
20260502011236 52 49 0.0 1.7 0.00 0.00 0.00 36 1017.8
20260502010734 53 209 0.0 0.9 0.00 0.00 0.00 37 1017.8
20260502010229 53 353 1.7 3.5 0.00 0.00 0.00 36 1017.7
20260502005727 53 51 0.9 4.3 0.00 0.00 0.00 35 1017.7
20260502005225 53 32 0.0 2.6 0.00 0.00 0.00 37 1017.9
20260502004721 53 339 0.9 1.7 0.00 0.00 0.00 35 1017.6
20260502004218 53 271 2.6 5.2 0.00 0.00 0.00 36 1017.8
20260502003716 54 357 1.7 6.1 0.00 0.00 0.00 35 1017.6
20260502003213 54 291 1.7 2.6 0.00 0.00 0.00 36 1017.6
20260502002708 53 26 3.5 4.3 0.00 0.00 0.00 35 1017.7
20260502002206 54 247 6.1 7.0 0.00 0.00 0.00 35 1017.7
20260502001703 54 261 3.5 5.2 0.00 0.00 0.00 36 1017.6
20260502001201 54 284 0.9 4.3 0.00 0.00 0.00 35 1017.8
20260502000658 54 357 2.6 7.0 0.00 0.00 0.00 35 1017.6
20260502000156 55 265 2.6 5.2 0.00 0.00 0.00 35 1017.7
20260501235652 55 276 6.1 6.1 0.00 0.00 0.00 33 1017.7
20260501235148 54 248 1.7 4.3 0.00 0.00 0.00 33 1017.7
20260501234643 55 261 1.7 4.3 0.00 0.00 0.00 32 1017.8
20260501234141 55 28 3.5 5.2 0.00 0.00 0.00 35 1017.8
20260501233639 55 216 0.0 3.5 0.00 0.00 0.00 35 1017.8
20260501233136 55 347 1.7 4.3 0.00 0.00 0.00 33 1017.8
20260501232632 55 11 2.6 4.3 0.00 0.00 0.00 34 1017.8
20260501232130 55 24 4.3 4.3 0.00 0.00 0.00 36 1017.8
20260501231627 56 8 3.5 5.2 0.00 0.00 0.00 34 1017.7
20260501231125 55 29 1.7 4.3 0.00 0.00 0.00 34 1017.8
20260501230623 55 288 0.0 3.5 0.00 0.00 0.00 33 1017.7
20260501230121 55 350 2.6 5.2 0.00 0.00 0.00 34 1017.8
20260501225619 55 1 2.6 5.2 0.00 0.00 0.00 34 1017.8
20260501225114 55 38 3.5 7.8 0.00 0.00 0.00 34 1017.9
20260501224612 56 133 0.9 7.0 0.00 0.00 0.00 34 1017.7
20260501224109 55 120 3.5 4.3 0.00 0.00 0.00 34 1017.6
20260501223605 55 230 5.2 5.2 0.00 0.00 0.00 34 1017.7
20260501223102 54 349 2.6 7.8 0.00 0.00 0.00 34 1017.8
20260501222558 55 5 3.5 7.0 0.00 0.00 0.00 37 1017.8
20260501222055 54 70 2.6 6.1 0.00 0.00 0.00 35 1017.8
20260501221552 55 354 6.1 7.8 0.00 0.00 0.00 35 1017.8
20260501221049 54 262 7.0 7.0 0.00 0.00 0.00 36 1017.8
20260501220547 55 282 4.3 9.6 0.00 0.00 0.00 36 1018.0
20260501220043 55 333 1.7 5.2 0.00 0.00 0.00 34 1018.0
20260501215540 55 244 3.5 5.2 0.00 0.00 0.00 34 1018.0
20260501215035 54 9 4.3 7.8 0.00 0.00 0.00 35 1017.9
20260501214531 54 13 1.7 10.4 0.00 0.00 0.00 34 1018.1
20260501214026 54 14 7.0 9.6 0.00 0.00 0.00 36 1018.2
20260501213524 54 356 2.6 7.8 0.00 0.00 0.00 37 1018.1
20260501213020 54 318 5.2 7.0 0.00 0.00 0.00 35 1018.1
20260501212516 54 324 2.6 6.1 0.00 0.00 0.00 36 1018.2
20260501212014 54 346 5.2 5.2 0.00 0.00 0.00 36 1018.1
20260501211510 54 249 1.7 3.5 0.00 0.00 0.00 36 1018.2
20260501211008 54 29 4.3 7.0 0.00 0.00 0.00 37 1018.3
20260501210504 55 342 2.6 6.1 0.00 0.00 0.00 37 1018.2
20260501210001 54 147 1.7 1.7 0.00 0.00 0.00 36 1018.4
20260501205457 52 260 3.5 7.8 0.00 0.00 0.00 37 1018.3
20260501204955 51 315 3.5 6.1 0.00 0.00 0.00 39 1018.4
20260501204450 52 331 3.5 9.6 0.00 0.00 0.00 41 1018.5
20260501203947 52 359 3.5 9.6 0.00 0.00 0.00 38 1018.4
20260501203444 55 253 3.5 5.2 0.00 0.00 0.00 38 1018.5
20260501202942 53 2 7.0 8.7 0.00 0.00 0.00 38 1018.3
20260501202438 52 7 3.5 4.3 0.00 0.00 0.00 39 1018.4
20260501201934 54 327 1.7 5.2 0.00 0.00 0.00 39 1018.5
20260501201432 53 236 5.2 7.8 0.00 0.00 0.00 39 1018.4
20260501200929 54 244 2.6 7.0 0.00 0.00 0.00 37 1018.6
20260501200425 54 330 6.1 7.8 0.00 0.00 0.00 36 1018.6
20260501195923 55 319 1.7 6.1 0.00 0.00 0.00 36 1018.3
20260501195420 52 239 3.5 9.6 0.00 0.00 0.00 38 1018.5
20260501194915 52 314 4.3 5.2 0.00 0.00 0.00 38 1018.6
20260501194411 53 356 0.0 13.0 0.00 0.00 0.00 39 1018.5
20260501193907 52 74 5.2 7.0 0.00 0.00 0.00 38 1018.7
20260501193406 51 58 1.7 3.5 0.00 0.00 0.00 39 1018.7
20260501192903 52 358 2.6 7.8 0.00 0.00 0.00 39 1018.7
20260501192400 52 153 3.5 5.2 0.00 0.00 0.00 37 1018.7
20260501191857 53 28 5.2 5.2 0.00 0.00 0.00 38 1018.8
20260501191354 51 277 0.9 4.3 0.00 0.00 0.00 38 1018.7
20260501190851 51 341 4.3 5.2 0.00 0.00 0.00 39 1018.7
20260501190347 51 24 2.6 10.4 0.00 0.00 0.00 40 1018.6
20260501185842 50 12 1.7 6.1 0.00 0.00 0.00 40 1018.8
20260501185339 52 348 1.7 7.8 0.00 0.00 0.00 38 1018.9
20260501184834 52 93 7.0 8.7 0.00 0.00 0.00 38 1018.6
20260501184330 52 31 2.6 5.2 0.00 0.00 0.00 40 1018.8
20260501183826 51 307 1.7 6.1 0.00 0.00 0.00 40 1018.8
20260501183324 51 9 2.6 7.0 0.00 0.00 0.00 40 1018.8
20260501182820 51 172 2.6 4.3 0.00 0.00 0.00 39 1018.7
20260501182317 50 250 4.3 6.1 0.00 0.00 0.00 41 1018.8
20260501181814 51 277 7.0 7.8 0.00 0.00 0.00 41 1018.9
20260501181311 52 274 4.3 7.0 0.00 0.00 0.00 40 1019.0
20260501180808 51 358 3.5 8.7 0.00 0.00 0.00 41 1018.9
20260501180304 50 39 3.5 6.1 0.00 0.00 0.00 40 1019.0
20260501175801 51 62 7.8 8.7 0.00 0.00 0.00 41 1019.0
20260501175258 50 48 3.5 8.7 0.00 0.00 0.00 43 1019.0